Coolangatta, Queensland

11:31 AM AEST on July 25, 2016 (GMT +1000)
Coolangatta

Weather History for YBCG - February, 2014

Change the Weather History Date:

Friday, February 21, 2014

  Actual Average (YBBN) Record (YBBN)
Temperature  
Mean Temperature 81 °F -  
Max Temperature 89 °F 82 °F 95 °F (2004)
Min Temperature 73 °F 68 °F 62 °F (2001)
Cooling Degree Days 16    
Growing Degree Days 31 (Base 50)    
Moisture  
Dew Point 73 °F    
Average Humidity 80    
Maximum Humidity 94    
Minimum Humidity 52    
Precipitation  
Precipitation 0.02 in - - ()
Sea Level Pressure  
Sea Level Pressure 29.89 in    
Wind  
Wind Speed 9 mph ()    
Max Wind Speed 20 mph    
Max Gust Speed -    
Visibility 6.0 miles    
Events      
Averages and records for this station are not official NWS values.
T = Trace of Precipitation, MM = Missing Value Source: Averaged Metar Reports

Daily Weather History Graph

Daily Weather History Graph

Search for Another Location

Airport or City:

Trip Planner

Search our weather history database for the weather conditions in past years. The results will help you decide how hot, cold, wet, or windy it might be!

Date:

Astronomy

Feb. 21, 2014 Rise Set
Actual Time 5:32 AM AEST 6:26 PM AEST
Civil Twilight 5:08 AM AEST 6:50 PM AEST
Nautical Twilight 4:39 AM AEST 7:18 PM AEST
Astronomical Twilight 4:10 AM AEST 7:48 PM AEST
Moon 10:09 PM AEST (2/21) 10:50 AM AEST (2/21)
Length of Visible Light 13h 42m
Length of Day
12h 53m
Waning Gibbous, 67% of the Moon is Illuminated
Feb 21
Waning Gibbous
Feb 23
Last Quarter
Mar 1
New
Mar 8
First Quarter
Mar 17
Full

Hourly Weather History & Observations

Time (AEST) Temp. Heat Index Dew Point Humidity Pressure Visibility Wind Dir Wind Speed Gust Speed Precip Events Conditions
12:00 AM 78 °F - 74 °F 84% 29.85 in - North 10.4 mph - -  
12:00 AM 77.0 °F - 73.4 °F 89% 29.83 in 6.2 mi North 10.4 mph - N/A   Unknown
12:30 AM 77.0 °F - 73.4 °F 89% 29.83 in 6.2 mi North 10.4 mph - N/A   Unknown
1:00 AM 77.0 °F - 73.4 °F 89% 29.83 in 6.2 mi North 10.4 mph - N/A   Mostly Cloudy
1:30 AM 77.0 °F - 73.4 °F 89% 29.83 in 6.2 mi NNW 9.2 mph - N/A   Mostly Cloudy
2:00 AM 77.0 °F - 73.4 °F 89% 29.83 in 6.2 mi NNW 8.1 mph - N/A   Mostly Cloudy
2:30 AM 77.0 °F - 73.4 °F 89% 29.83 in 6.2 mi North 8.1 mph - N/A   Overcast
3:00 AM 78 °F - 74 °F 84% 29.83 in - NNW 5.8 mph - -   Overcast
3:00 AM 77.0 °F - 73.4 °F 89% 29.83 in 6.2 mi NNW 5.8 mph - N/A   Overcast
3:30 AM 77.0 °F - 73.4 °F 89% 29.83 in 5.6 mi North 8.1 mph - N/A   Overcast
4:00 AM 77.0 °F - 73.4 °F 89% 29.83 in 6.2 mi NNW 6.9 mph - N/A   Unknown
4:30 AM 77.0 °F - 73.4 °F 89% 29.83 in 6.2 mi NNW 3.5 mph - N/A   Overcast
5:00 AM 77.0 °F - 73.4 °F 89% 29.83 in 6.2 mi NNW 4.6 mph - N/A   Overcast
5:30 AM 77.0 °F - 73.4 °F 89% 29.86 in 5.6 mi North 5.8 mph - N/A   Overcast
6:00 AM 77 °F - 74 °F 87% 29.88 in - NW 2.3 mph - -   Overcast
6:00 AM 77.0 °F - 73.4 °F 89% 29.86 in 6.2 mi NW 2.3 mph - N/A   Overcast
6:30 AM 78.8 °F - 73.4 °F 83% 29.89 in 6.2 mi Calm Calm - N/A   Overcast
7:00 AM 78.8 °F - 75.2 °F 89% 29.89 in 6.2 mi Calm Calm - N/A   Overcast
7:18 AM 78.8 °F - 73.4 °F 83% 29.89 in 6.2 mi SSE 3.5 mph - N/A   Overcast
7:30 AM 80.6 °F 86.2 °F 75.2 °F 84% 29.89 in 6.2 mi ENE 2.3 mph - N/A   Overcast
8:00 AM 80.6 °F 86.2 °F 75.2 °F 84% 29.89 in 6.2 mi SSE 5.8 mph - N/A   Overcast
8:30 AM 80.6 °F 86.2 °F 75.2 °F 84% 29.89 in 6.2 mi SSE 6.9 mph - N/A   Overcast
8:59 AM 84.2 °F 92.3 °F 75.2 °F 74% 29.89 in 6.2 mi South 6.9 mph - N/A   Overcast
9:00 AM 84 °F - 74 °F 65% 29.90 in - South 6.9 mph - -   Overcast
9:00 AM 84.2 °F 90.9 °F 73.4 °F 70% 29.89 in 6.2 mi South 6.9 mph - N/A   Overcast
9:30 AM 84.2 °F 90.9 °F 73.4 °F 70% 29.89 in 6.2 mi South 5.8 mph - N/A   Scattered Clouds
10:00 AM 84.2 °F 90.9 °F 73.4 °F 70% 29.89 in 6.2 mi SSE 6.9 mph - N/A   Mostly Cloudy
10:30 AM 87.8 °F 95.6 °F 73.4 °F 62% 29.89 in 6.2 mi SSE 9.2 mph - N/A   Overcast
11:00 AM 89.6 °F 99.8 °F 75.2 °F 62% 29.89 in 6.2 mi SE 11.5 mph - N/A   Overcast
11:30 AM 87.8 °F 97.6 °F 75.2 °F 66% 29.89 in 6.2 mi SE 12.7 mph - N/A   Overcast
12:00 PM 88 °F - 73 °F 52% 29.88 in - SSE 15.0 mph - -  
12:00 PM 87.8 °F 95.6 °F 73.4 °F 62% 29.89 in 6.2 mi SSE 15.0 mph - N/A   Mostly Cloudy
12:30 PM 86.0 °F 91.8 °F 71.6 °F 62% 29.89 in 6.2 mi SE 17.3 mph - N/A   Overcast
1:00 PM 82.4 °F 87.2 °F 71.6 °F 70% 29.89 in 6.2 mi SSE 16.1 mph - N/A   Overcast
1:30 PM 82.4 °F 87.2 °F 71.6 °F 70% 29.86 in 6.2 mi SSE 17.3 mph - N/A   Overcast
2:00 PM 84.2 °F 89.6 °F 71.6 °F 66% 29.86 in 6.2 mi SSE 17.3 mph - N/A   Overcast
2:30 PM 84.2 °F 89.6 °F 71.6 °F 66% 29.86 in 6.2 mi SE 18.4 mph - N/A   Overcast
3:00 PM 83 °F - 72 °F 63% 29.86 in - SE 19.6 mph - -   Overcast
3:00 PM 82.4 °F 87.2 °F 71.6 °F 70% 29.86 in 6.2 mi SE 19.6 mph - N/A   Overcast
3:30 PM 82.4 °F 87.2 °F 71.6 °F 70% 29.83 in 6.2 mi SSE 19.6 mph - N/A   Overcast
4:00 PM 80.6 °F 84.6 °F 71.6 °F 74% 29.86 in 6.2 mi SSE 16.1 mph - N/A   Overcast
4:30 PM 80.6 °F 84.6 °F 71.6 °F 74% 29.86 in 6.2 mi SSE 13.8 mph - N/A   Overcast
5:00 PM 80.6 °F 84.6 °F 71.6 °F 74% 29.86 in 6.2 mi SSE 16.1 mph - N/A   Overcast
5:30 PM 78.8 °F - 73.4 °F 83% 29.86 in 6.2 mi SSE 16.1 mph - N/A   Overcast
6:00 PM 79 °F - 72 °F 73% 29.89 in - South 15.0 mph - -   Overcast
6:00 PM 78.8 °F - 71.6 °F 78% 29.89 in 6.2 mi South 15.0 mph - N/A   Overcast
6:55 PM 78.8 °F - 71.6 °F 78% 29.92 in 6.2 mi South 13.8 mph - N/A   Overcast
7:00 PM 78.8 °F - 71.6 °F 78% 29.92 in 6.2 mi SSE 13.8 mph - N/A   Overcast
7:30 PM 78.8 °F - 71.6 °F 78% 29.92 in 6.2 mi South 13.8 mph - N/A   Overcast
7:53 PM 77.0 °F - 71.6 °F 83% 29.92 in 6.2 mi South 13.8 mph - N/A   Overcast
8:00 PM 77.0 °F - 71.6 °F 83% 29.95 in 6.2 mi South 12.7 mph - N/A   Overcast
8:03 PM 77.0 °F - 71.6 °F 83% 29.95 in 6.2 mi South 12.7 mph - N/A   Overcast
8:22 PM 77.0 °F - 71.6 °F 83% 29.95 in 6.2 mi South 12.7 mph - N/A   Overcast
8:28 PM 75.2 °F - 71.6 °F 89% 29.95 in 3.7 mi South 13.8 mph - N/A   Overcast
8:30 PM 75.2 °F - 71.6 °F 89% 29.95 in 3.7 mi South 13.8 mph - N/A   Overcast
9:00 PM 74 °F - 72 °F 90% 29.97 in 3 mi South 10.4 mph - -   Overcast
9:00 PM 75.2 °F - 71.6 °F 89% 29.95 in - South 10.4 mph - N/A   Overcast
9:24 PM 73.4 °F - 71.6 °F 94% 29.95 in 6.2 mi South 12.7 mph - N/A   Overcast
9:30 PM 73.4 °F - 71.6 °F 94% 29.95 in 6.2 mi South 12.7 mph - N/A   Overcast
10:00 PM 73.4 °F - 71.6 °F 94% 29.95 in 5.0 mi South 11.5 mph - N/A   Overcast
10:17 PM 73.4 °F - 71.6 °F 94% 29.95 in 5.0 mi South 9.2 mph - N/A   Overcast
10:30 PM 73.4 °F - 71.6 °F 94% 29.95 in 4.3 mi South 9.2 mph - N/A   Overcast
11:00 PM 73.4 °F - 69.8 °F 88% 29.95 in 6.2 mi South 12.7 mph - N/A   Overcast
11:30 PM 73.4 °F - 69.8 °F 88% 29.95 in 6.2 mi South 12.7 mph - N/A   Overcast